"Sample Date","Sample Time","Sample Value","Units","Flow Rate","Laser Status","Micron Size 0","Counts/Channel 0","Micron Size 1","Counts/Channel 1","Micron Size 2","Counts/Channel 2","Micron Size 3","Counts/Channel 3","Micron Size 4","Counts/Channel 4","Micron Size 5","Counts/Channel 5","Micron Size 6","Counts/Channel 6","Micron Size 7","Counts/Channel 7","Micron Size 8","Counts/Channel 8","Micron Size 9","Counts/Channel 9","Micron Size 10","Counts/Channel 10","Micron Size 11","Counts/Channel 11","Micron Size 12","Counts/Channel 12","Micron Size 13","Counts/Channel 13","Micron Size 14","Counts/Channel 14","Micron Size 15","Counts/Channel 15","Micron Size 16","Counts/Channel 16","Micron Size 17","Counts/Channel 17","Micron Size 18","Counts/Channel 18","Micron Size 19","Counts/Channel 19","Micron Size 20","Counts/Channel 20","Micron Size 21","Counts/Channel 21","Micron Size 22","Counts/Channel 22","Micron Size 23","Counts/Channel 23","Micron Size 24","Counts/Channel 24","Micron Size 25","Counts/Channel 25","Micron Size 26","Counts/Channel 26","Micron Size 27","Counts/Channel 27","Micron Size 28","Counts/Channel 28","Micron Size 29","Counts/Channel 29","Micron Size 30","Counts/Channel 30","Micron Size 31","Counts/Channel 31"
"03/02/08","08:00:04",14538.000,"cc",28298.279,1,0.100,13285.000,0.200,508.000,0.300,311.000,0.500,323.000,1.000,111.000,5.000,0
"03/02/08","08:00:10",14533.000,"cc",28305.252,1,0.100,13263.000,0.200,519.000,0.300,293.000,0.500,340.000,1.000,118.000,5.000,0
"03/02/08","08:00:16",14722.000,"cc",28325.631,1,0.100,13455.000,0.200,515.000,0.300,318.000,0.500,314.000,1.000,120.000,5.000,0
"03/02/08","08:00:22",14549.000,"cc",28304.781,1,0.100,13413.000,0.200,478.000,0.300,252.000,0.500,309.000,1.000,97.000,5.000,0
"03/02/08","08:00:28",14640.000,"cc",28307.322,1,0.100,13416.000,0.200,540.000,0.300,273.000,0.500,311.000,1.000,100.000,5.000,0
"03/02/08","08:00:34",14785.000,"cc",28380.857,1,0.100,13526.000,0.200,519.000,0.300,300.000,0.500,329.000,1.000,111.000,5.000,0
"03/02/08","08:00:40",14537.000,"cc",28356.283,1,0.100,13264.000,0.200,547.000,0.300,287.000,0.500,307.000,1.000,132.000,5.000,0
"03/02/08","08:00:46",14642.000,"cc",28309.922,1,0.100,13418.000,0.200,540.000,0.300,259.000,0.500,308.000,1.000,117.000,5.000,0
"03/02/08","08:00:52",14461.000,"cc",28263.877,1,0.100,13170.000,0.200,531.000,0.300,287.000,0.500,350.000,1.000,123.000,5.000,0
"03/02/08","08:00:58",14835.000,"cc",28362.484,1,0.100,13642.000,0.200,515.000,0.300,266.000,0.500,296.000,1.000,116.000,5.000,0
"03/02/08","08:01:04",14529.000,"cc",28283.959,1,0.100,13321.000,0.200,498.000,0.300,275.000,0.500,318.000,1.000,117.000,5.000,0
"03/02/08","08:01:10",14740.000,"cc",28300.846,1,0.100,13534.000,0.200,510.000,0.300,308.000,0.500,282.000,1.000,106.000,5.000,0
"03/02/08","08:01:16",14724.000,"cc",28340.049,1,0.100,13535.000,0.200,485.000,0.300,265.000,0.500,327.000,1.000,112.000,5.000,0
"03/02/08","08:01:22",14687.000,"cc",28324.346,1,0.100,13442.000,0.200,520.000,0.300,277.000,0.500,334.000,1.000,114.000,5.000,0
"03/02/08","08:01:28",14714.000,"cc",28356.273,1,0.100,13502.000,0.200,483.000,0.300,295.000,0.500,308.000,1.000,126.000,5.000,0
"03/02/08","08:01:34",14553.000,"cc",28297.926,1,0.100,13311.000,0.200,525.000,0.300,258.000,0.500,340.000,1.000,119.000,5.000,0
"03/02/08","08:01:40",14340.000,"cc",28320.254,1,0.100,13198.000,0.200,507.000,0.300,248.000,0.500,272.000,1.000,115.000,5.000,0
"03/02/08","08:01:46",14552.000,"cc",28281.309,1,0.100,13313.000,0.200,479.000,0.300,311.000,0.500,336.000,1.000,113.000,5.000,0
"03/02/08","08:01:52",14744.000,"cc",28272.793,1,0.100,13450.000,0.200,541.000,0.300,289.000,0.500,338.000,1.000,126.000,5.000,0
"03/02/08","08:01:58",14607.000,"cc",28422.217,1,0.100,13420.000,0.200,535.000,0.300,269.000,0.500,284.000,1.000,99.000,5.000,0
"03/02/08","08:02:04",14458.000,"cc",28303.248,1,0.100,13242.000,0.200,478.000,0.300,291.000,0.500,318.000,1.000,129.000,5.000,0
"03/02/08","08:02:10",14579.000,"cc",28299.695,1,0.100,13323.000,0.200,535.000,0.300,274.000,0.500,337.000,1.000,110.000,5.000,0
"03/02/08","08:02:16",14618.000,"cc",28301.902,1,0.100,13347.000,0.200,544.000,0.300,256.000,0.500,344.000,1.000,127.000,5.000,0
"03/02/08","08:02:22",14638.000,"cc",28324.197,1,0.100,13436.000,0.200,505.000,0.300,260.000,0.500,312.000,1.000,125.000,5.000,0
"03/02/08","08:02:28",14706.000,"cc",28273.748,1,0.100,13443.000,0.200,535.000,0.300,282.000,0.500,336.000,1.000,110.000,5.000,0
"03/02/08","08:02:34",14431.000,"cc",28289.451,1,0.100,13208.000,0.200,544.000,0.300,266.000,0.500,323.000,1.000,90.000,5.000,0
"03/02/08","08:02:40",14631.000,"cc",28407.203,1,0.100,13399.000,0.200,512.000,0.300,280.000,0.500,336.000,1.000,104.000,5.000,0
"03/02/08","08:02:46",14832.000,"cc",28264.727,1,0.100,13584.000,0.200,543.000,0.300,287.000,0.500,311.000,1.000,107.000,5.000,0
"03/02/08","08:02:52",14634.000,"cc",28352.998,1,0.100,13410.000,0.200,497.000,0.300,302.000,0.500,311.000,1.000,114.000,5.000,0
"03/02/08","08:02:58",14602.000,"cc",28309.082,1,0.100,13378.000,0.200,510.000,0.300,271.000,0.500,319.000,1.000,124.000,5.000,0
"03/02/08","08:03:04",14550.000,"cc",28343.012,1,0.100,13361.000,0.200,512.000,0.300,269.000,0.500,299.000,1.000,109.000,5.000,0
"03/02/08","08:03:10",14594.000,"cc",28297.918,1,0.100,13316.000,0.200,554.000,0.300,311.000,0.500,307.000,1.000,106.000,5.000,0
"03/02/08","08:03:16",14734.000,"cc",28325.731,1,0.100,13495.000,0.200,509.000,0.300,272.000,0.500,352.000,1.000,106.000,5.000,0
"03/02/08","08:03:22",14553.000,"cc",28232.850,1,0.100,13330.000,0.200,499.000,0.300,286.000,0.500,331.000,1.000,107.000,5.000,0
"03/02/08","08:03:28",14879.000,"cc",28265.732,1,0.100,13631.000,0.200,543.000,0.300,282.000,0.500,311.000,1.000,112.000,5.000,0
"03/02/08","08:03:34",14602.000,"cc",28388.320,1,0.100,13363.000,0.200,521.000,0.300,310.000,0.500,298.000,1.000,110.000,5.000,0
"03/02/08","08:03:40",14727.000,"cc",28315.570,1,0.100,13502.000,0.200,497.000,0.300,289.000,0.500,337.000,1.000,102.000,5.000,0
"03/02/08","08:03:46",14719.000,"cc",28330.420,1,0.100,13483.000,0.200,513.000,0.300,282.000,0.500,310.000,1.000,131.000,5.000,0
"03/02/08","08:03:52",14621.000,"cc",28312.201,1,0.100,13339.000,0.200,535.000,0.300,319.000,0.500,314.000,1.000,114.000,5.000,0
"03/02/08","08:03:58",14520.000,"cc",28385.652,1,0.100,13314.000,0.200,519.000,0.300,295.000,0.500,290.000,1.000,102.000,5.000,0
"03/02/08","08:04:04",14832.000,"cc",28362.625,1,0.100,13546.000,0.200,599.000,0.300,275.000,0.500,291.000,1.000,120.000,5.000,1.000
"03/02/08","08:04:10",14817.000,"cc",28328.525,1,0.100,13534.000,0.200,532.000,0.300,276.000,0.500,355.000,1.000,120.000,5.000,0
"03/02/08","08:04:16",14685.000,"cc",28310.268,1,0.100,13449.000,0.200,483.000,0.300,296.000,0.500,346.000,1.000,111.000,5.000,0
"03/02/08","08:04:22",14961.000,"cc",28291.356,1,0.100,13686.000,0.200,554.000,0.300,295.000,0.500,331.000,1.000,95.000,5.000,0
"03/02/08","08:04:28",14943.000,"cc",28225.865,1,0.100,13727.000,0.200,483.000,0.300,265.000,0.500,363.000,1.000,105.000,5.000,0
"03/02/08","08:04:34",14911.000,"cc",28330.604,1,0.100,13626.000,0.200,534.000,0.300,296.000,0.500,336.000,1.000,119.000,5.000,0
"03/02/08","08:04:40",15024.000,"cc",28343.365,1,0.100,13744.000,0.200,519.000,0.300,315.000,0.500,334.000,1.000,112.000,5.000,0
"03/02/08","08:04:46",14872.000,"cc",28259.061,1,0.100,13621.000,0.200,555.000,0.300,297.000,0.500,289.000,1.000,110.000,5.000,0
"03/02/08","08:04:52",15085.000,"cc",28289.381,1,0.100,13835.000,0.200,499.000,0.300,306.000,0.500,329.000,1.000,116.000,5.000,0
"03/02/08","08:04:58",15035.000,"cc",28333.756,1,0.100,13775.000,0.200,512.000,0.300,315.000,0.500,321.000,1.000,112.000,5.000,0
"03/02/08","08:05:04",15183.000,"cc",28336.598,1,0.100,13871.000,0.200,563.000,0.300,293.000,0.500,341.000,1.000,115.000,5.000,0
"03/02/08","08:05:10",15116.000,"cc",28319.775,1,0.100,13839.000,0.200,542.000,0.300,317.000,0.500,318.000,1.000,100.000,5.000,0
"03/02/08","08:05:16",15159.000,"cc",28344.346,1,0.100,13834.000,0.200,544.000,0.300,323.000,0.500,345.000,1.000,113.000,5.000,0
"03/02/08","08:05:22",15314.000,"cc",28301.746,1,0.100,13959.000,0.200,567.000,0.300,323.000,0.500,346.000,1.000,119.000,5.000,0
"03/02/08","08:05:28",15376.000,"cc",28350.264,1,0.100,14055.000,0.200,562.000,0.300,320.000,0.500,344.000,1.000,95.000,5.000,0
"03/02/08","08:05:34",15208.000,"cc",28361.273,1,0.100,13813.000,0.200,554.000,0.300,328.000,0.500,375.000,1.000,138.000,5.000,0
"03/02/08","08:05:40",15100.000,"cc",28241.094,1,0.100,13799.000,0.200,517.000,0.300,306.000,0.500,364.000,1.000,114.000,5.000,0
"03/02/08","08:05:46",15280.000,"cc",28284.574,1,0.100,13981.000,0.200,523.000,0.300,297.000,0.500,348.000,1.000,131.000,5.000,0
"03/02/08","08:05:52",15455.000,"cc",28317.721,1,0.100,14059.000,0.200,559.000,0.300,360.000,0.500,362.000,1.000,115.000,5.000,0
"03/02/08","08:05:58",15288.000,"cc",28372.682,1,0.100,13940.000,0.200,565.000,0.300,336.000,0.500,354.000,1.000,93.000,5.000,0
"03/02/08","08:06:04",15008.000,"cc",28301.504,1,0.100,13725.000,0.200,526.000,0.300,310.000,0.500,328.000,1.000,119.000,5.000,0
"03/02/08","08:06:10",15182.000,"cc",28252.148,1,0.100,13787.000,0.200,579.000,0.300,322.000,0.500,360.000,1.000,134.000,5.000,0
"03/02/08","08:06:16",15263.000,"cc",28307.826,1,0.100,13926.000,0.200,530.000,0.300,316.000,0.500,360.000,1.000,131.000,5.000,0
"03/02/08","08:06:22",15231.000,"cc",28341.979,1,0.100,13908.000,0.200,513.000,0.300,352.000,0.500,329.000,1.000,129.000,5.000,0
"03/02/08","08:06:28",15102.000,"cc",28314.471,1,0.100,13825.000,0.200,528.000,0.300,308.000,0.500,325.000,1.000,116.000,5.000,0
"03/02/08","08:06:34",15238.000,"cc",28348.369,1,0.100,13882.000,0.200,563.000,0.300,342.000,0.500,355.000,1.000,96.000,5.000,0
"03/02/08","08:06:40",15049.000,"cc",28369.570,1,0.100,13741.000,0.200,493.000,0.300,319.000,0.500,377.000,1.000,119.000,5.000,0
"03/02/08","08:06:46",15049.000,"cc",28300.531,1,0.100,13770.000,0.200,533.000,0.300,275.000,0.500,347.000,1.000,124.000,5.000,0
"03/02/08","08:06:52",15165.000,"cc",28301.197,1,0.100,13838.000,0.200,537.000,0.300,321.000,0.500,360.000,1.000,109.000,5.000,0
"03/02/08","08:06:58",14990.000,"cc",28292.520,1,0.100,13679.000,0.200,550.000,0.300,303.000,0.500,332.000,1.000,126.000,5.000,0
"03/02/08","08:07:04",15044.000,"cc",28341.481,1,0.100,13719.000,0.200,519.000,0.300,305.000,0.500,366.000,1.000,135.000,5.000,0
"03/02/08","08:07:10",15213.000,"cc",28239.578,1,0.100,13918.000,0.200,542.000,0.300,311.000,0.500,348.000,1.000,94.000,5.000,0
"03/02/08","08:07:16",15109.000,"cc",28319.965,1,0.100,13803.000,0.200,525.000,0.300,304.000,0.500,361.000,1.000,116.000,5.000,0
"03/02/08","08:07:22",15225.000,"cc",28407.029,1,0.100,13866.000,0.200,550.000,0.300,327.000,0.500,363.000,1.000,119.000,5.000,0
"03/02/08","08:07:28",15070.000,"cc",28280.850,1,0.100,13724.000,0.200,548.000,0.300,314.000,0.500,355.000,1.000,129.000,5.000,0
"03/02/08","08:07:34",15120.000,"cc",28305.541,1,0.100,13821.000,0.200,549.000,0.300,289.000,0.500,333.000,1.000,128.000,5.000,0
"03/02/08","08:07:40",15100.000,"cc",28316.422,1,0.100,13838.000,0.200,512.000,0.300,298.000,0.500,333.000,1.000,119.000,5.000,0
"03/02/08","08:07:46",15134.000,"cc",28336.842,1,0.100,13872.000,0.200,514.000,0.300,299.000,0.500,319.000,1.000,130.000,5.000,0
"03/02/08","08:07:52",15043.000,"cc",28317.656,1,0.100,13767.000,0.200,532.000,0.300,290.000,0.500,332.000,1.000,122.000,5.000,0
"03/02/08","08:07:58",15310.000,"cc",28295.395,1,0.100,13979.000,0.200,549.000,0.300,313.000,0.500,355.000,1.000,114.000,5.000,0
"03/02/08","08:08:04",15180.000,"cc",28336.049,1,0.100,13869.000,0.200,545.000,0.300,302.000,0.500,365.000,1.000,99.000,5.000,0
"03/02/08","08:08:10",15130.000,"cc",28332.809,1,0.100,13815.000,0.200,547.000,0.300,318.000,0.500,331.000,1.000,119.000,5.000,0
"03/02/08","08:08:16",15028.000,"cc",28309.828,1,0.100,13691.000,0.200,571.000,0.300,305.000,0.500,348.000,1.000,113.000,5.000,0
"03/02/08","08:08:22",14950.000,"cc",28330.672,1,0.100,13643.000,0.200,549.000,0.300,302.000,0.500,364.000,1.000,92.000,5.000,0
"03/02/08","08:08:28",15080.000,"cc",28303.924,1,0.100,13723.000,0.200,553.000,0.300,333.000,0.500,351.000,1.000,120.000,5.000,0
"03/02/08","08:08:34",15005.000,"cc",28283.623,1,0.100,13654.000,0.200,582.000,0.300,307.000,0.500,337.000,1.000,125.000,5.000,0
"03/02/08","08:08:40",15290.000,"cc",28318.061,1,0.100,13992.000,0.200,547.000,0.300,273.000,0.500,374.000,1.000,104.000,5.000,0
"03/02/08","08:08:46",15242.000,"cc",28332.713,1,0.100,13868.000,0.200,599.000,0.300,304.000,0.500,353.000,1.000,118.000,5.000,0
"03/02/08","08:08:52",14952.000,"cc",28312.234,1,0.100,13639.000,0.200,560.000,0.300,285.000,0.500,341.000,1.000,127.000,5.000,0
"03/02/08","08:08:58",15106.000,"cc",28335.902,1,0.100,13734.000,0.200,576.000,0.300,314.000,0.500,359.000,1.000,123.000,5.000,0
"03/02/08","08:09:04",15204.000,"cc",28325.770,1,0.100,13879.000,0.200,492.000,0.300,338.000,0.500,371.000,1.000,124.000,5.000,0
"03/02/08","08:09:10",14982.000,"cc",28301.752,1,0.100,13640.000,0.200,556.000,0.300,339.000,0.500,335.000,1.000,112.000,5.000,0
"03/02/08","08:09:16",15016.000,"cc",28250.137,1,0.100,13704.000,0.200,516.000,0.300,348.000,0.500,355.000,1.000,93.000,5.000,0
"03/02/08","08:09:22",15341.000,"cc",28325.670,1,0.100,13948.000,0.200,579.000,0.300,328.000,0.500,342.000,1.000,144.000,5.000,0
"03/02/08","08:09:28",15075.000,"cc",28370.869,1,0.100,13694.000,0.200,569.000,0.300,322.000,0.500,357.000,1.000,133.000,5.000,0
"03/02/08","08:09:34",15298.000,"cc",28232.211,1,0.100,13925.000,0.200,560.000,0.300,329.000,0.500,360.000,1.000,124.000,5.000,0
"03/02/08","08:09:40",15190.000,"cc",28321.648,1,0.100,13817.000,0.200,549.000,0.300,350.000,0.500,353.000,1.000,121.000,5.000,0
"03/02/08","08:09:46",15216.000,"cc",28340.777,1,0.100,13856.000,0.200,572.000,0.300,313.000,0.500,368.000,1.000,107.000,5.000,0
"03/02/08","08:09:52",15416.000,"cc",28300.770,1,0.100,14026.000,0.200,556.000,0.300,316.000,0.500,401.000,1.000,117.000,5.000,0
"03/02/08","08:09:58",15336.000,"cc",28342.315,1,0.100,13938.000,0.200,601.000,0.300,326.000,0.500,344.000,1.000,127.000,5.000,0
"03/02/08","08:10:04",15065.000,"cc",28347.068,1,0.100,13724.000,0.200,539.000,0.300,303.000,0.500,387.000,1.000,112.000,5.000,0
"03/02/08","08:10:10",15288.000,"cc",28308.990,1,0.100,13819.000,0.200,590.000,0.300,346.000,0.500,406.000,1.000,127.000,5.000,0
"03/02/08","08:10:16",15052.000,"cc",28279.160,1,0.100,13755.000,0.200,537.000,0.300,287.000,0.500,375.000,1.000,98.000,5.000,0
"03/02/08","08:10:22",15144.000,"cc",28336.576,1,0.100,13775.000,0.200,513.000,0.300,345.000,0.500,387.000,1.000,124.000,5.000,0
"03/02/08","08:10:28",15665.000,"cc",28289.656,1,0.100,14270.000,0.200,583.000,0.300,335.000,0.500,370.000,1.000,107.000,5.000,0
"03/02/08","08:10:34",15088.000,"cc",28282.322,1,0.100,13724.000,0.200,564.000,0.300,332.000,0.500,354.000,1.000,114.000,5.000,0
"03/02/08","08:10:40",15354.000,"cc",28353.445,1,0.100,13946.000,0.200,576.000,0.300,316.000,0.500,400.000,1.000,116.000,5.000,0
"03/02/08","08:10:46",15429.000,"cc",28370.004,1,0.100,14068.000,0.200,560.000,0.300,338.000,0.500,353.000,1.000,110.000,5.000,0
"03/02/08","08:10:52",15320.000,"cc",28298.201,1,0.100,13898.000,0.200,603.000,0.300,340.000,0.500,359.000,1.000,120.000,5.000,0
"03/02/08","08:10:58",15585.000,"cc",28279.754,1,0.100,14187.000,0.200,558.000,0.300,322.000,0.500,390.000,1.000,128.000,5.000,0
"03/02/08","08:11:04",15594.000,"cc",28355.514,1,0.100,14111.000,0.200,613.000,0.300,351.000,0.500,396.000,1.000,123.000,5.000,0
"03/02/08","08:11:10",15505.000,"cc",28278.223,1,0.100,14070.000,0.200,622.000,0.300,339.000,0.500,361.000,1.000,113.000,5.000,0
"03/02/08","08:11:16",15597.000,"cc",28366.299,1,0.100,14168.000,0.200,618.000,0.300,346.000,0.500,344.000,1.000,121.000,5.000,0
"03/02/08","08:11:22",15573.000,"cc",28333.861,1,0.100,14141.000,0.200,565.000,0.300,343.000,0.500,394.000,1.000,130.000,5.000,0
"03/02/08","08:11:28",15518.000,"cc",28318.715,1,0.100,14083.000,0.200,597.000,0.300,331.000,0.500,366.000,1.000,141.000,5.000,0
"03/02/08","08:11:34",15360.000,"cc",28296.561,1,0.100,13970.000,0.200,597.000,0.300,306.000,0.500,379.000,1.000,108.000,5.000,0
"03/02/08","08:11:40",15434.000,"cc",28337.592,1,0.100,14041.000,0.200,558.000,0.300,333.000,0.500,387.000,1.000,115.000,5.000,0
"03/02/08","08:11:46",15683.000,"cc",28354.996,1,0.100,14211.000,0.200,631.000,0.300,362.000,0.500,357.000,1.000,122.000,5.000,0
"03/02/08","08:11:52",15154.000,"cc",28383.231,1,0.100,13733.000,0.200,564.000,0.300,361.000,0.500,375.000,1.000,121.000,5.000,0
"03/02/08","08:11:58",15520.000,"cc",28220.531,1,0.100,14046.000,0.200,567.000,0.300,382.000,0.500,379.000,1.000,146.000,5.000,0
"03/02/08","08:12:04",15665.000,"cc",28256.598,1,0.100,14289.000,0.200,547.000,0.300,346.000,0.500,377.000,1.000,106.000,5.000,0
"03/02/08","08:12:10",15619.000,"cc",28370.018,1,0.100,14122.000,0.200,585.000,0.300,352.000,0.500,429.000,1.000,131.000,5.000,0
"03/02/08","08:12:16",15334.000,"cc",28371.006,1,0.100,13932.000,0.200,589.000,0.300,333.000,0.500,374.000,1.000,106.000,5.000,0
"03/02/08","08:12:22",15779.000,"cc",28305.941,1,0.100,14293.000,0.200,597.000,0.300,386.000,0.500,381.000,1.000,122.000,5.000,0
"03/02/08","08:12:28",15277.000,"cc",28256.938,1,0.100,13954.000,0.200,530.000,0.300,343.000,0.500,342.000,1.000,108.000,5.000,0
"03/02/08","08:12:34",15757.000,"cc",28257.201,1,0.100,14319.000,0.200,590.000,0.300,365.000,0.500,365.000,1.000,118.000,5.000,0
"03/02/08","08:12:40",15520.000,"cc",28408.861,1,0.100,14050.000,0.200,633.000,0.300,357.000,0.500,376.000,1.000,104.000,5.000,0
"03/02/08","08:12:46",15594.000,"cc",28271.717,1,0.100,14157.000,0.200,581.000,0.300,358.000,0.500,377.000,1.000,121.000,5.000,0
"03/02/08","08:12:52",15619.000,"cc",28260.072,1,0.100,14112.000,0.200,589.000,0.300,382.000,0.500,399.000,1.000,137.000,5.000,0
"03/02/08","08:12:58",15521.000,"cc",28324.635,1,0.100,14081.000,0.200,568.000,0.300,362.000,0.500,404.000,1.000,106.000,5.000,0
"03/02/08","08:13:04",15436.000,"cc",28361.549,1,0.100,13990.000,0.200,613.000,0.300,334.000,0.500,386.000,1.000,113.000,5.000,0
"03/02/08","08:13:10",15654.000,"cc",28293.354,1,0.100,14161.000,0.200,622.000,0.300,367.000,0.500,379.000,1.000,125.000,5.000,0
"03/02/08","08:13:16",15767.000,"cc",28324.234,1,0.100,14361.000,0.200,613.000,0.300,329.000,0.500,374.000,1.000,90.000,5.000,0
"03/02/08","08:13:22",15651.000,"cc",28297.387,1,0.100,14148.000,0.200,596.000,0.300,392.000,0.500,406.000,1.000,109.000,5.000,0
"03/02/08","08:13:28",15679.000,"cc",28276.420,1,0.100,14239.000,0.200,543.000,0.300,380.000,0.500,410.000,1.000,107.000,5.000,0
"03/02/08","08:13:34",15600.000,"cc",28347.113,1,0.100,14155.000,0.200,583.000,0.300,337.000,0.500,398.000,1.000,127.000,5.000,0
"03/02/08","08:13:40",15690.000,"cc",28359.551,1,0.100,14258.000,0.200,611.000,0.300,324.000,0.500,360.000,1.000,137.000,5.000,0
"03/02/08","08:13:46",15711.000,"cc",28313.717,1,0.100,14296.000,0.200,607.000,0.300,333.000,0.500,355.000,1.000,120.000,5.000,0
"03/02/08","08:13:52",15943.000,"cc",28316.356,1,0.100,14454.000,0.200,613.000,0.300,369.000,0.500,384.000,1.000,123.000,5.000,0
"03/02/08","08:13:58",15927.000,"cc",28279.246,1,0.100,14483.000,0.200,601.000,0.300,331.000,0.500,389.000,1.000,123.000,5.000,0
"03/02/08","08:14:04",15893.000,"cc",28291.207,1,0.100,14470.000,0.200,583.000,0.300,338.000,0.500,375.000,1.000,127.000,5.000,0
"03/02/08","08:14:10",16143.000,"cc",28312.998,1,0.100,14647.000,0.200,629.000,0.300,328.000,0.500,419.000,1.000,120.000,5.000,0
"03/02/08","08:14:16",16030.000,"cc",28303.682,1,0.100,14507.000,0.200,639.000,0.300,350.000,0.500,404.000,1.000,130.000,5.000,0
"03/02/08","08:14:22",15907.000,"cc",28313.729,1,0.100,14487.000,0.200,593.000,0.300,340.000,0.500,364.000,1.000,123.000,5.000,0
"03/02/08","08:14:28",15664.000,"cc",28363.252,1,0.100,14176.000,0.200,636.000,0.300,350.000,0.500,389.000,1.000,113.000,5.000,0
"03/02/08","08:14:34",15948.000,"cc",28309.324,1,0.100,14498.000,0.200,610.000,0.300,335.000,0.500,389.000,1.000,116.000,5.000,0
"03/02/08","08:14:40",16088.000,"cc",28294.438,1,0.100,14562.000,0.200,651.000,0.300,335.000,0.500,401.000,1.000,139.000,5.000,0
"03/02/08","08:14:46",15640.000,"cc",28339.303,1,0.100,14231.000,0.200,550.000,0.300,369.000,0.500,385.000,1.000,105.000,5.000,0
"03/02/08","08:14:52",15739.000,"cc",28380.229,1,0.100,14341.000,0.200,599.000,0.300,315.000,0.500,374.000,1.000,110.000,5.000,0
"03/02/08","08:14:58",15902.000,"cc",28329.199,1,0.100,14457.000,0.200,596.000,0.300,346.000,0.500,407.000,1.000,96.000,5.000,0
"03/02/08","08:15:04",16097.000,"cc",28256.072,1,0.100,14646.000,0.200,621.000,0.300,346.000,0.500,375.000,1.000,109.000,5.000,0
"03/02/08","08:15:10",16112.000,"cc",28334.277,1,0.100,14617.000,0.200,614.000,0.300,369.000,0.500,381.000,1.000,131.000,5.000,0
"03/02/08","08:15:16",16223.000,"cc",28301.363,1,0.100,14756.000,0.200,673.000,0.300,337.000,0.500,355.000,1.000,102.000,5.000,0
"03/02/08","08:15:22",16253.000,"cc",28294.773,1,0.100,14802.000,0.200,600.000,0.300,319.000,0.500,409.000,1.000,123.000,5.000,0
"03/02/08","08:15:28",16210.000,"cc",28281.461,1,0.100,14702.000,0.200,628.000,0.300,374.000,0.500,393.000,1.000,113.000,5.000,0
"03/02/08","08:15:34",16162.000,"cc",28313.533,1,0.100,14576.000,0.200,684.000,0.300,396.000,0.500,396.000,1.000,110.000,5.000,0
"03/02/08","08:15:40",15940.000,"cc",28367.285,1,0.100,14404.000,0.200,661.000,0.300,376.000,0.500,356.000,1.000,143.000,5.000,0
"03/02/08","08:15:46",16032.000,"cc",28340.369,1,0.100,14593.000,0.200,642.000,0.300,342.000,0.500,349.000,1.000,106.000,5.000,0
"03/02/08","08:15:52",16397.000,"cc",28302.789,1,0.100,14862.000,0.200,640.000,0.300,362.000,0.500,400.000,1.000,133.000,5.000,0
"03/02/08","08:15:58",16280.000,"cc",28296.455,1,0.100,14728.000,0.200,661.000,0.300,404.000,0.500,377.000,1.000,110.000,5.000,0
"03/02/08","08:16:04",16127.000,"cc",28282.940,1,0.100,14689.000,0.200,628.000,0.300,350.000,0.500,355.000,1.000,105.000,5.000,0
"03/02/08","08:16:10",16228.000,"cc",28335.867,1,0.100,14770.000,0.200,613.000,0.300,339.000,0.500,393.000,1.000,113.000,5.000,0
"03/02/08","08:16:16",16192.000,"cc",28312.137,1,0.100,14747.000,0.200,614.000,0.300,307.000,0.500,408.000,1.000,116.000,5.000,0
"03/02/08","08:16:22",16340.000,"cc",28371.273,1,0.100,14835.000,0.200,621.000,0.300,361.000,0.500,390.000,1.000,133.000,5.000,0
"03/02/08","08:16:28",16501.000,"cc",28327.315,1,0.100,15022.000,0.200,622.000,0.300,355.000,0.500,387.000,1.000,115.000,5.000,0
"03/02/08","08:16:34",16245.000,"cc",28260.635,1,0.100,14780.000,0.200,617.000,0.300,349.000,0.500,377.000,1.000,122.000,5.000,0
"03/02/08","08:16:40",16219.000,"cc",28305.508,1,0.100,14708.000,0.200,628.000,0.300,362.000,0.500,389.000,1.000,132.000,5.000,0
"03/02/08","08:16:46",16186.000,"cc",28332.184,1,0.100,14669.000,0.200,628.000,0.300,358.000,0.500,420.000,1.000,111.000,5.000,0
"03/02/08","08:16:52",16240.000,"cc",28343.025,1,0.100,14730.000,0.200,598.000,0.300,384.000,0.500,405.000,1.000,123.000,5.000,0
"03/02/08","08:16:58",16420.000,"cc",28273.348,1,0.100,14929.000,0.200,625.000,0.300,350.000,0.500,402.000,1.000,114.000,5.000,0
"03/02/08","08:17:04",16071.000,"cc",28353.090,1,0.100,14579.000,0.200,637.000,0.300,348.000,0.500,388.000,1.000,119.000,5.000,0
"03/02/08","08:17:10",16424.000,"cc",28366.703,1,0.100,14923.000,0.200,680.000,0.300,358.000,0.500,347.000,1.000,116.000,5.000,0
"03/02/08","08:17:16",16129.000,"cc",28319.535,1,0.100,14664.000,0.200,590.000,0.300,343.000,0.500,414.000,1.000,118.000,5.000,0
"03/02/08","08:17:22",16412.000,"cc",28307.147,1,0.100,14906.000,0.200,653.000,0.300,346.000,0.500,396.000,1.000,111.000,5.000,0
"03/02/08","08:17:28",16206.000,"cc",28296.207,1,0.100,14752.000,0.200,614.000,0.300,358.000,0.500,373.000,1.000,109.000,5.000,0